Regional Weather Roundup
Issued by NWS Charleston, SC

Current Version | Previous Version | Graphics & Text | Print | Product List | Glossary On
Versions: 1 2 3 4 5 6 7 8 9 10 11 12 13 14 15 16 17 18 19 20 21 22 23 24 25 26 27 28 29 30 31 32 33 34 35 36 37 38 39 40 41 42 43 44 45 46 47 48 49 50
000 ASUS42 KCHS 231827 RWRCHS REGIONAL WEATHER ROUNDUP NATIONAL WEATHER SERVICE CHARLESTON SC 200 PM EDT SUN JUL 23 2017 NOTE: "FAIR" INDICATES FEW OR NO CLOUDS BELOW 12,000 FEET WITH NO SIGNIFICANT WEATHER AND/OR OBSTRUCTIONS TO VISIBILITY. NOT ALL STATIONS ARE QUALITY CONTROLLED. USE DATA WITH CAUTION... ESPECIALLY DEWPOINT OBSERVATIONS. SCZ027-030-031-034>040-042>050-231900- ...SOUTHEAST SOUTH CAROLINA... CITY SKY/WX TMP DP RH WIND PRES REMARKS N CHARLESTON MOSUNNY 92 78 63 S12 29.93S HX 107 6HR MIN TEMP: 79; 6HR MAX TEMP: 93; WATERFRONT PRK N/A 86 80 82 S16 29.92F HX 101 JOHNS ISLAND N/A 88 81 79 S16G23 29.94F HX 105 PINOPOLIS N/A 90 79 70 SW5 29.84F HX 105 MONCKS CORNER FAIR 91 73 55 SW10 29.91F HX 100 SUMMERVILLE FAIR 91 75 59 SW8 29.92F HX 102 BEAUFORT MCAS MOSUNNY 93 78 61 MISG 29.94F HX 108 6HR MIN TEMP: 80; 6HR MAX TEMP: 93; BEAUFORT ARPT FAIR 88 79 74 S13 29.93F HX 102 HILTON HEAD IS MOSUNNY 88 81 79 S12G21 29.96F HX 105 WALTERBORO PTCLDY 91 73 55 SW9 29.92F HX 100 ALLENDALE NOT AVBL ...SOUTHERN MIDLANDS AND PEE DEE... CITY SKY/WX TMP DP RH WIND PRES REMARKS GEORGETOWN MOCLDY 91 77 62 SW12G18 29.92F HX 105 KINGSTREE MOCLDY 90 75 62 SW8 29.89F HX 100 ORANGEBURG MOSUNNY 92 75 57 SW13G18 29.90F HX 103 6HR MIN TEMP: 78; 6HR MAX TEMP: 92; BARNWELL FAIR 95 77 55 SW6G13 29.90F HX 109 AIKEN FAIR 91 72 52 SW9 29.93F HX 98 MANNING MOCLDY 91 70 49 W12G17 29.90S HX 97 COLUMBIA PTSUNNY 95 74 50 SW9 29.87F HX 105 6HR MIN TEMP: 80; 6HR MAX TEMP: 96; SUMTER MOSUNNY 94 74 52 SW12G17 29.86F HX 103 6HR MIN TEMP: 79; 6HR MAX TEMP: 94; FLORENCE MOSUNNY 93 76 57 SW12 29.88F HX 105 6HR MIN TEMP: 79; 6HR MAX TEMP: 93; MYRTLE BEACH MOSUNNY 90 79 70 S17 29.91F HX 105 N MYRTLE BEACH SUNNY 88 79 74 S16 29.90F HX 103 6HR MIN TEMP: 81; 6HR MAX TEMP: 89; $$ GAZ063-065-086>088-099>101-113>116-118-119-134>141-150-231900- ...SOUTHEAST GEORGIA... CITY SKY/WX TMP DP RH WIND PRES REMARKS SAVANNAH ARPT PTSUNNY 92 74 55 S12 29.94F HX 101 6HR MIN TEMP: 79; 6HR MAX TEMP: 92; HUNTER AAF MOSUNNY 91 77 64 S9 29.93F HX 104 6HR MIN TEMP: 78; 6HR MAX TEMP: 92; FORT STEWART CLOUDY 90 74 60 SW8 29.93F HX 99 6HR MIN TEMP: 79; 6HR MAX TEMP: 90; STATESBORO PTSUNNY 92 75 57 S6 29.93F THUNDER HX 104 SYLVANIA MOCLDY 92 79 65 SW6 29.93F HX 108 CLAXTON FAIR 92 74 55 S5 29.94F HX 101 ...CSRA...CENTRAL AND FAR SOUTHEAST GEORGIA... CITY SKY/WX TMP DP RH WIND PRES REMARKS THOMSON MOSUNNY 92 73 52 NW8 29.94F HX 101 AUGUSTA-BUSH MOSUNNY 94 76 55 S9 29.89F HX 106 6HR MIN TEMP: 81; 6HR MAX TEMP: 95; AUGUSTA-DANIEL MOSUNNY 95 69 42 SW8 29.91F HX 100 SWAINSBORO MOCLDY 86 77 74 S5 29.95S THUNDER HX 97 VIDALIA MOSUNNY 91 77 62 SW7G17 29.94F HX 105 EASTMAN MOCLDY 92 58 31 W6 29.97F HX 91 HAZLEHURST FAIR 91 73 55 SW8 29.94F HX 99 ALMA MOSUNNY 90 74 59 W6 29.97F HX 99 6HR MIN TEMP: 79; 6HR MAX TEMP: 91; WAYCROSS CLOUDY 85 82 90 SW16G23 29.99F HX 102 JESUP NOT AVBL BAXLEY FAIR 91 79 66 SW8 29.95F HX 107 BRUNSWICK TSTM 79 75 89 SE7 29.98F SAINT SIMONS TSTM 76 74 93 SW22G38 30.03R VSB 1/4 6HR MIN TEMP: 78; 6HR MAX TEMP: 90; $$ SCZ027-028-034-036>038-045-046-048>050-GAZ119-141-231900- ...LAKE AND SUPPLEMENTAL COASTAL OBSERVATIONS... STATION/POSITION TIME TEMP WIND PRES WAVE SWELL AIR SEA DIR/SP/G HT/PER HT/PER/DIR (UTC) (F) (DEG/KT/KT) (MB) (FT/S) (FT/S/D) WINYAH BAY 1745 90 240/ 7 1013.0S LAKE MURRAY 1730 90 190/ 7/ 11 1010.8F ACE BASIN NERRS 1745 90 180/ 1 1014.0S FORT PULASKI 1800 87 86 200/ 8/ 14 1014.6 SAPELO ISLAND 1800 84 180/ 17 1015.0 $$ ANZ835-935-AMZ111-154-330-350-352-354-370-450-454-472-231900- ...C-MAN AND BUOY OBSERVATIONS... STATION/POSITION TIME TEMP WIND PRES WAVE SWELL AIR SEA DIR/SP/G HT/PER HT/PER/DIR (UTC) (F) (DEG/KT/KT) (MB) (FT/S) (FT/S/D) BUOY 41004 1800 82 84 210/ 17/ 21 1014.5 BUOY 41008 1750 81 82 180/ 14/ 17 1015.3F 2/10 2/120/10 FOLLY BEACH CMAN 1800 84 210/ 19/ 22 1014.9S CAPERS NEARSHORE 1808 81 85 220/ 17/ 25 1013.7F FRIPP NEARSHORE 1808 83 86 200/ 17/ 21 1014.2F STATION/POSITION TIME TEMP WIND PRES WAVE SWELL AIR SEA DIR/SP/G HT/PER HT/PER/DIR (UTC) (F) (DEG/KT/KT) (MB) (FT/S) (FT/S/D) 5E ST. MARYS GA 1800 81 N/A 3/10 FRYING PAN BUOY 1810 83 83 210/ 17/ 21 1013.8 BUOY 41025 1750 84 84 230/ 21/ 25 1012.0F 7/ 7 2/170/10 CAPE LOOKOUT NC 1800 84 210/ 17/ 21 1012.3F BUOY 41002 1750 82 84 230/ 16/ 17 1017.1F 5/ 6 2/ 90/10 BUOY 41010 1800 83 85 150/ 8/ 10 1018.4 ST AUGUSTINE FL 1800 75 76 210/ 7/ 8 1017.9F $$

USA.gov is the U.S. government's official web portal to all federal, state and local government web resources and services.